Simultaneous Nadir Overpasses (SNOs) Predictions

Prediction of SNOs between GOES-17 and FY3D Satellite Orbit:

Table of predicted SNOs for the next 14.0 days since TLE Epoch: 8/16/2019
Index Date Time (GOES-17) GOES-17 Lat,Lon FY3D Lat,Lon Distance(km) Time Diff (sec)
1 08/18/2019 10:36:06 -0.04,-137.18 -0.08,-137.09 11.29 80
2 08/20/2019 22:38:51 0.05,-137.16 -0.08,-137.75 67.69 80
3 08/21/2019 22:22:35 0.05,-137.15 0.92,-133.18 452.22 80
4 08/23/2019 10:44:08 -0.05,-137.13 0.25,-138.39 143.18 80
5 08/24/2019 10:22:33 -0.05,-137.12 -0.81,-133.82 376.06 80
6 08/25/2019 22:44:13 0.06,-137.08 -0.40,-139.05 225.11 80
7 08/26/2019 22:27:58 0.06,-137.06 0.65,-134.49 293.61 80
8 08/28/2019 10:49:30 -0.07,-137.03 0.50,-139.70 303.33 80
9 08/29/2019 10:30:35 -0.07,-137.01 -0.49,-135.12 214.97 80




NCC Satellite Simultaneous Nadir Overpasses (SNOs) Prediction Service
